Location: Allison Elementary School
(34.0784°N, 117.7317°W)
Time: 21:37:26
(UTC+00:00)

Envisat - Pass Details

Date: 15 November 2019
Orbit: 764 x 766 km, 98.1° (Epoch: 14 December)

Event Time Altitude Azimuth Distance (km) Brightness Sun altitude
Rises 01:19:25 0° 146° (SE) 3,219 6.1 -7.0°
Reaches altitude 10° 01:21:51 10° 138° (SE) 2,296 5.2 -7.5°
Maximum altitude 01:26:29 38° 72° (ENE) 1,164 3.5 -8.4°
Drops below altitude 10° 01:31:09 10° 5° (N) 2,308 5.3 -9.3°
Sets 01:33:36 0° 358° (N) 3,238 6.1 -9.8°
